weather.gov     
National Weather Service

Terminal Aerodrome Forecast
NWS Homepage
This page is being discontinued on March 12, 2014.
The same data is available at this site. Please update your bookmarks.
Thank you, and we apologize for the inconvenience.
Please send an email to SR-SRH.Webmaster@noaa.gov with any concerns.


Current Version
Previous Version:    01  02  03  04  05  06  07  08  09  10  11  12  13  14  15  16  17  18  19  20  21  22  23  24  25  26  27  28  29  30  
   31  32  33  34  35  36  37  
[Printable]
118
FTUS45 KGJT 211130
TAFTEX
TAF
KTEX 211130Z 2112/2212 VRB03KT P6SM VCSH OVC035
     FM211900 27006KT P6SM VCSH SCT030 BKN050 OVC070
     FM212200 26009KT P6SM -SN BKN030 OVC050
     FM220200 29010G20KT 4SM -SN BR BKN012 OVC020=




118
FTUS45 KGJT 211130
TAFTEX
TAF
KTEX 211130Z 2112/2212 VRB03KT P6SM VCSH OVC035
     FM211900 27006KT P6SM VCSH SCT030 BKN050 OVC070
     FM212200 26009KT P6SM -SN BKN030 OVC050
     FM220200 29010G20KT 4SM -SN BR BKN012 OVC020=


U.S. Dept. of Commerce
NOAA National Weather Service
1325 East West Highway
Silver Spring, MD 20910
E-mail: w-nws.webmaster@noaa.gov
Page last modified: May 16, 2007
NATIONAL WEATHER SERVICE: for Safety, for Work, for Fun - FOR LIFE